Theta_e
313 313 313 312 312 312 313 313 314 314 314 313 313 314 316 315 314 313 314 316 317 316 316 316 317 316 318 321 319 320 320 322 324 323 322 318 318 318 318 318 318 317 317 317 317
310 310 310 310 310 310 310 310 310 311 312 312 312 313 314 315 316 316 316 315 315 316 316 316 319 318 319 321 321 321 324 325 321 320 320 319 318 318 316 316 317 317 316 316 315
311 311 312 312 312 313 313 312 312 311 310 310 311 311 312 313 314 318 317 317 315 316 315 315 317 319 320 321 321 321 321 321 321 320 318 318 318 318 317 316 317 317 317 316 314
312 312 313 313 313 313 313 313 313 313 312 311 310 310 310 313 319 318 316 317 315 315 315 315 317 319 320 322 322 320 321 321 320 318 317 317 318 318 318 317 319 319 318 318 316
313 313 313 313 313 313 313 313 313 314 314 313 312 310 309 315 316 316 316 315 314 315 314 315 317 319 321 321 321 319 319 320 319 318 317 317 317 316 317 317 317 317 318 317 317
313 313 313 313 313 313 313 313 313 314 314 314 313 311 309 315 314 315 315 315 314 314 313 314 317 319 319 318 318 319 318 318 318 318 317 316 316 317 317 318 317 318 317 316 316
312 313 313 313 314 314 314 314 314 314 314 314 313 311 310 313 314 314 313 313 315 313 313 314 315 316 319 319 319 317 316 317 317 318 317 317 315 315 317 318 317 317 317 317 316
307 307 307 309 311 313 314 314 314 314 314 314 313 310 311 314 314 315 313 313 314 313 312 314 313 315 317 317 317 316 317 318 319 317 316 316 316 317 319 318 318 317 316 317 316
311 310 309 307 306 307 310 312 313 314 314 313 312 311 316 316 315 314 313 313 314 313 312 311 313 317 317 316 317 317 317 318 319 318 315 314 316 318 318 318 318 317 316 316 316
311 312 312 311 309 307 307 307 309 311 312 311 312 316 315 315 315 314 314 313 313 312 311 312 314 316 315 316 317 318 318 317 317 316 315 314 314 315 317 317 316 316 316 316 316
311 309 310 310 311 310 308 307 312 314 312 314 317 315 315 315 314 314 314 314 312 313 314 314 314 315 315 317 317 317 317 317 317 317 316 315 315 316 316 317 317 317 316 316 316
317 315 312 312 309 310 307 307 310 310 309 309 311 312 315 316 315 315 314 312 313 313 314 315 316 316 316 316 316 316 316 317 316 316 315 314 315 315 314 315 316 316 316 316 315
320 320 320 318 311 308 307 306 306 307 313 310 310 311 311 311 314 314 313 312 313 314 314 314 316 316 316 316 316 316 315 315 315 315 313 313 313 313 313 314 315 315 316 315 314
322 321 321 321 315 308 310 308 307 310 311 312 313 312 311 312 311 313 314 314 314 314 314 315 315 315 314 315 314 314 315 315 315 315 315 314 315 314 315 313 311 314 315 315 315
324 323 322 321 320 312 310 308 310 306 311 314 310 310 313 312 310 311 312 313 313 313 315 314 314 314 315 314 314 315 313 313 314 315 315 315 314 314 313 313 313 312 316 316 314
325 324 323 321 321 320 308 309 310 309 310 313 312 312 313 312 312 309 310 310 311 312 311 312 312 313 314 311 312 310 313 312 312 311 313 313 314 313 313 314 313 311 314 315 314
325 325 324 320 318 319 312 310 309 309 312 314 314 313 313 314 313 310 310 309 310 312 311 313 312 312 311 313 310 311 314 315 316 314 316 313 313 315 314 311 311 310 314 314 314
324 324 323 322 319 319 309 311 310 317 314 314 313 314 314 313 314 312 312 311 310 311 312 315 317 313 309 312 313 310 313 315 315 314 315 313 314 314 313 312 313 314 315 313 313
322 322 320 322 319 318 308 310 317 321 317 316 314 313 313 313 314 314 312 313 312 311 313 313 313 310 310 311 312 312 312 314 314 308 312 315 313 312 313 311 310 311 312 312 311
319 320 319 321 319 313 309 314 315 318 318 315 315 312 312 312 313 314 314 314 313 312 312 314 314 311 306 307 308 309 310 313 313 310 310 313 310 312 313 313 309 309 308 311 311
315 318 317 318 318 310 310 313 316 316 316 317 317 312 309 309 310 311 312 313 313 314 312 313 313 311 306 306 310 306 309 309 311 314 313 313 312 309 312 313 310 308 311 312 311
312 315 315 316 311 310 311 312 313 315 315 311 309 311 313 314 312 311 311 310 310 311 313 312 314 314 313 310 307 309 311 311 312 313 310 313 314 313 309 309 308 308 311 311 311
312 314 313 314 315 312 306 311 312 314 314 314 313 312 311 310 311 313 313 312 310 310 311 311 312 314 313 311 305 307 309 310 311 310 313 314 314 312 312 309 309 308 311 311 311
308 312 308 309 313 314 315 311 312 312 312 313 313 312 311 311 310 311 311 310 310 311 310 311 311 312 314 313 312 310 310 308 310 312 312 312 312 312 311 311 311 312 312 312 312
303 309 310 309 308 311 313 314 314 312 313 314 314 313 311 312 314 312 310 310 310 310 309 307 311 311 312 312 311 311 311 311 311 311 310 310 310 311 311 311 311 312 312 311 311
300 304 302 303 305 306 308 310 312 313 313 314 314 314 313 313 314 314 311 311 312 309 310 308 310 309 311 310 310 311 310 310 310 310 312 311 312 311 310 310 310 310 310 310 311
297 299 298 300 302 304 306 308 309 309 309 311 312 313 314 313 311 312 313 314 313 313 309 308 308 309 312 310 310 312 311 311 311 311 311 311 311 311 311 311 311 311 311 311 312
Wind_Speed
7 7 8 8 9 9 9 9 8 8 8 9 8 7 8 9 9 11 12 10 7 6 5 4 3 1 3 6 7 3 3 5 8 0 0 7 5 7 8 4 9 12 10 6 9
9 8 8 9 9 9 9 9 10 10 9 8 8 8 9 10 13 19 14 11 10 8 7 4 2 4 5 5 4 5 3 5 3 5 3 7 10 7 4 11 12 14 16 16 16
11 11 11 11 11 11 11 11 10 10 11 11 11 10 9 9 13 10 7 18 13 11 9 7 7 6 9 10 8 6 5 1 5 5 4 7 9 13 8 8 16 21 24 25 24
14 14 14 14 14 14 14 14 14 13 12 13 12 12 10 7 5 4 7 9 15 13 10 6 4 4 5 7 15 4 16 16 3 3 3 4 5 10 23 22 6 13 21 29 29
16 16 16 16 16 16 16 16 16 16 15 15 15 14 11 7 15 18 16 11 14 14 13 9 9 12 7 7 4 8 11 12 12 9 12 12 16 10 22 24 26 24 20 20 28
19 19 18 18 18 18 18 18 18 18 17 17 16 15 12 11 15 15 15 13 16 15 14 13 7 9 8 10 7 6 11 17 12 17 11 8 9 10 16 17 27 26 29 28 30
22 23 22 21 20 21 20 20 21 20 19 18 18 16 14 25 20 19 17 17 17 16 15 14 15 10 3 7 7 6 7 9 15 19 6 8 9 15 37 18 15 20 30 33 31
21 23 25 25 24 24 22 21 22 22 21 20 18 13 11 18 22 23 21 19 17 18 17 17 13 11 7 5 5 4 5 4 2 13 9 10 12 11 19 25 29 25 24 26 33
22 23 24 24 25 26 26 24 23 23 22 20 14 9 8 13 15 19 17 13 14 15 15 14 10 7 5 3 5 8 7 10 8 13 8 10 9 4 3 10 15 21 22 26 33
19 21 24 23 24 26 27 25 24 23 21 13 12 5 17 10 12 10 13 14 7 9 6 8 8 4 4 6 9 6 9 9 9 8 7 7 17 13 20 13 21 27 30 34 36
18 18 19 20 20 21 25 23 10 7 8 11 5 8 5 12 11 10 11 16 9 8 7 13 5 12 20 15 17 13 15 15 21 10 9 14 17 18 22 22 22 31 36 35 38
19 19 20 22 18 15 14 8 9 10 13 21 28 29 26 23 10 16 16 16 12 11 11 5 16 19 10 11 7 9 12 19 15 10 9 11 14 11 10 20 29 30 33 41 28
20 22 21 20 18 13 11 13 11 13 7 12 31 22 31 32 19 24 25 18 9 9 15 20 8 18 14 12 12 19 13 19 17 13 4 5 8 12 11 28 33 37 40 41 32
20 22 26 22 10 14 9 11 8 7 4 5 8 4 12 9 7 18 27 15 8 15 11 17 21 19 17 15 10 22 9 11 12 7 10 8 7 9 6 9 10 27 36 37 27
20 20 24 26 19 11 11 8 3 4 7 3 4 2 3 6 4 2 17 11 13 7 5 7 4 7 13 21 11 17 4 4 5 7 7 8 8 9 11 10 13 11 32 38 24
23 21 22 24 21 15 10 4 2 4 9 5 8 6 4 7 2 2 1 5 4 6 13 16 2 2 4 3 1 4 0 4 3 2 9 11 11 5 9 11 6 10 29 32 23
24 23 28 23 12 13 7 3 4 8 2 6 6 7 5 6 7 8 6 6 6 3 7 6 19 4 4 2 2 4 3 3 3 3 12 14 14 20 6 8 10 12 23 25 17
25 19 26 29 26 16 7 2 12 5 17 2 4 7 6 8 8 9 6 7 14 8 4 4 6 16 9 16 8 9 9 5 7 6 20 5 8 6 9 12 27 29 37 16 19
24 24 28 26 28 24 20 4 11 6 8 13 15 15 11 9 6 8 10 9 8 20 11 7 9 3 5 2 9 5 6 4 3 1 5 11 12 8 4 11 11 20 16 18 18
20 22 33 26 23 24 4 14 15 9 7 12 16 8 13 11 10 9 8 5 8 13 19 4 9 6 2 4 3 3 3 2 3 3 8 20 11 15 6 16 9 6 10 16 16
20 9 14 14 22 14 7 12 17 18 18 12 17 14 13 11 15 14 17 18 6 5 17 5 6 3 6 8 9 3 4 5 2 5 10 15 15 6 5 3 9 9 14 14 14
16 5 13 17 9 6 10 9 15 22 17 9 2 10 21 25 23 14 15 13 26 16 2 3 3 6 18 5 3 8 14 13 10 14 4 8 27 6 8 10 10 9 17 13 14
8 12 13 26 7 8 5 11 16 18 16 8 12 14 12 14 10 14 21 39 34 6 1 5 3 4 9 14 4 5 5 7 8 8 17 18 26 8 17 11 11 12 17 17 19
5 4 7 22 28 18 16 11 15 24 23 30 11 9 7 11 17 7 10 10 19 19 8 5 6 15 15 16 13 11 16 9 14 12 24 23 32 33 27 25 24 31 24 27 32
6 6 8 4 8 16 18 12 20 16 25 24 9 26 17 11 17 18 22 27 19 23 4 5 9 20 26 27 31 32 31 30 20 19 21 28 26 29 32 20 25 26 31 23 27
7 5 7 5 11 6 9 16 28 24 24 26 25 22 22 24 26 26 22 19 16 1 12 11 8 16 22 27 32 34 33 33 37 35 35 38 35 35 34 42 33 39 36 33 33
12 15 8 8 8 9 12 10 7 15 19 33 27 26 27 29 39 46 43 35 14 13 12 11 9 8 18 24 24 21 34 37 34 33 33 30 41 46 34 33 36 38 38 37 34
Wind_Direction
321 328 332 339 345 350 354 356 358 1 2 0 354 340 305 290 289 283 267 261 269 258 268 278 297 261 191 223 232 242 278 268 269 316 273 123 196 193 224 224 198 205 222 236 223
316 322 327 331 335 339 342 342 341 340 340 337 333 330 321 302 290 276 269 258 254 251 257 265 299 236 230 224 218 219 233 262 29 358 285 170 219 199 207 220 222 226 234 236 231
309 313 318 322 324 326 328 331 333 333 331 328 325 321 316 313 305 277 280 246 243 239 246 243 237 222 243 236 211 219 231 62 308 271 287 282 228 244 206 245 223 224 225 238 235
302 306 309 312 315 317 319 321 323 324 323 322 320 317 313 303 274 281 313 246 231 233 236 235 210 210 229 227 236 264 248 260 283 264 258 250 270 253 229 234 264 238 228 233 230
299 301 305 307 309 311 313 314 315 316 315 314 313 312 307 269 256 275 284 259 231 230 228 216 234 238 255 277 250 223 263 282 256 249 247 258 260 253 256 249 254 255 249 240 234
292 295 298 302 304 306 309 310 310 311 311 309 305 300 286 250 267 268 271 255 239 233 228 217 210 255 289 261 264 346 298 288 274 231 226 225 258 236 257 257 245 238 245 238 240
290 291 292 293 294 297 302 304 305 307 307 305 301 293 267 262 272 274 271 258 243 237 226 233 226 231 306 257 267 281 300 269 243 229 227 218 271 233 251 235 233 235 238 244 242
296 295 293 292 294 293 292 297 301 303 303 302 297 280 252 268 260 256 257 250 239 235 234 233 238 237 220 292 268 231 233 282 274 175 162 145 269 235 260 233 231 239 241 241 245
305 306 305 304 301 294 294 295 296 299 300 292 281 243 253 255 251 254 249 243 235 233 233 238 217 225 184 204 277 222 252 236 262 176 139 179 254 255 215 206 227 232 247 251 254
311 311 310 312 310 307 305 302 301 297 286 273 231 237 240 239 249 249 232 212 213 214 220 200 206 219 207 198 228 225 226 252 260 198 188 209 250 264 255 258 260 264 260 256 252
325 319 315 319 315 318 314 321 332 297 254 228 251 221 223 238 252 243 223 197 191 203 202 190 185 215 222 214 232 253 264 264 267 254 183 236 240 251 261 264 250 258 261 260 259
330 333 334 342 332 315 309 304 271 282 300 275 266 258 256 258 238 228 208 183 184 210 213 229 226 230 244 253 266 270 269 266 276 294 208 248 252 252 260 263 261 258 264 265 263
321 326 327 346 340 326 317 289 285 277 245 264 260 240 245 241 231 232 203 197 190 206 209 223 197 215 235 252 252 248 249 259 263 283 222 310 269 252 245 249 257 261 261 264 262
311 319 319 334 338 337 322 317 302 303 261 238 204 226 235 219 271 239 218 209 225 221 216 251 241 246 255 250 225 265 235 257 266 284 259 181 283 231 220 227 226 249 261 266 261
298 308 310 317 321 317 308 312 293 315 282 157 162 180 193 209 339 183 193 224 241 202 193 220 202 199 233 241 228 263 207 232 270 265 301 258 281 221 192 232 240 242 257 268 262
285 289 287 294 303 313 315 284 260 245 245 214 152 165 170 200 213 352 237 230 342 276 262 257 145 245 228 71 359 118 86 214 231 212 255 210 216 226 205 213 221 224 244 259 264
279 274 272 269 264 289 306 192 262 226 225 194 206 174 197 192 197 183 180 192 202 192 227 230 234 179 142 189 154 195 141 289 293 195 252 187 222 241 196 177 188 211 234 248 201
269 272 268 260 258 262 202 67 248 210 218 293 172 184 214 184 221 193 216 225 217 239 306 239 272 183 177 208 166 184 183 178 240 251 275 201 250 236 205 217 214 222 244 228 217
274 272 273 259 242 235 149 193 237 249 261 273 293 273 244 207 231 175 218 243 217 195 205 208 245 44 152 124 161 182 202 196 262 115 298 253 267 311 273 238 220 219 198 197 207
280 276 274 271 244 207 161 243 241 232 311 289 271 287 276 238 191 195 205 207 231 204 221 259 262 186 88 47 283 217 165 131 228 253 243 276 278 270 208 233 223 192 206 222 236
272 265 268 245 215 180 211 232 268 255 248 264 253 277 278 292 291 276 253 253 212 235 199 235 230 210 123 205 191 169 236 223 268 193 241 269 273 278 139 153 178 208 214 237 224
256 245 241 194 182 194 225 211 239 260 235 250 186 257 255 266 269 270 281 288 321 355 282 212 235 238 237 233 236 235 221 191 226 237 230 237 262 222 153 164 162 193 197 209 243
239 241 237 204 222 220 274 245 238 258 241 210 229 215 223 249 265 249 250 259 276 289 21 4 319 329 284 278 217 220 227 238 256 262 250 247 263 174 252 250 225 197 210 229 236
276 255 196 213 228 240 242 231 241 239 256 254 257 222 236 240 237 242 251 264 261 276 155 117 238 244 246 249 285 266 270 248 244 243 252 250 260 272 266 272 275 275 269 261 262
227 245 224 214 257 252 239 229 238 235 234 243 230 224 212 235 244 240 247 260 256 247 149 176 233 236 243 248 259 258 262 275 268 266 264 275 268 272 272 268 265 269 273 265 271
256 304 337 308 305 273 263 260 252 249 251 246 235 236 219 231 231 250 223 228 235 125 211 179 241 227 233 236 243 252 257 260 256 255 247 250 266 258 265 275 276 272 274 278 280
256 265 306 270 278 282 261 268 272 279 272 276 273 269 254 238 236 242 251 250 244 216 208 178 203 202 244 231 237 244 238 243 252 247 246 246 241 253 258 256 262 271 276 277 275